This demonstration page uses our WeatherBlox Daily Observations layout. Learn more.

Left ArrowRight Arrow

Hourly Observations for March 11, 2020

Temp ( °F °C ) Dew Point ( °F °C ) Humidity (%) Winds ( mph kmh ) Pressure ( in mb ) Visibility ( mi km ) Precip ( " mm )
12:20 am 00:20 Cloudy 39 3.7 37 2.6 93 93 N N/A 30.25 1024 10 16 N/A
12:30 am 00:30 Cloudy 39 3.7 37 2.6 93 93 N N/A 30.25 1024 10 16 N/A
1:35 am 01:35 Cloudy N/A N/A N/A N N/A N/A 10 16 N/A
1:55 am 01:55 Cloudy 39 3.7 37 2.6 93 93 ESE 3 6 30.22 1023 10 16 N/A
2:15 am 02:15 Cloudy 39 3.7 37 2.7 93 93 ESE 3 6 30.21 1023 10 16 N/A
2:55 am 02:55 Cloudy 39 3.7 37 3 95 95 N N/A 30.20 1023 7 11 N/A
3:15 am 03:15 Cloudy 39 3.7 37 3 95 95 N N/A 30.20 1023 5 8 N/A
3:40 am 03:40 Cloudy 39 3.7 38 3.1 96 96 N N/A 30.20 1023 5 8 N/A
3:55 am 03:55 Cloudy 39 3.7 38 3.1 96 96 N N/A 30.19 1022 4 6 N/A
4:15 am 04:15 Cloudy 39 3.7 38 3.3 97 97 N N/A 30.20 1023 3 5 N/A
5:10 am 05:10 Cloudy N/A N/A N/A N N/A N/A 4 6 N/A
5:55 am 05:55 Cloudy 39 3.9 38 3.5 97 97 ESE 3 6 30.11 1020 4 6 N/A
6:15 am 06:15 Cloudy 39 4 38 3.5 97 97 S 6 9 30.13 1020 5 8 N/A
6:35 am 06:35 Cloudy 39 4 38 3.5 97 97 SSE 5 7 30.12 1020 4 6 N/A
6:55 am 06:55 Cloudy 39 4 38 3.6 97 97 SSE 7 11 30.11 1020 4 6 N/A
7:10 am 07:10 Cloudy 39 4 39 3.7 98 98 N N/A 30.11 1020 3 5 N/A
7:35 am 07:35 Cloudy 39 4.1 39 4 99 99 S 3 6 30.10 1019 3 4 N/A
7:55 am 07:55 Cloudy 39 4.1 39 4 99 99 N N/A 30.11 1020 2 3 N/A
8:15 am 08:15 Cloudy 40 4.2 39 4.1 99 99 N N/A 30.11 1020 2 3 N/A
8:35 am 08:35 Cloudy 40 4.5 40 4.2 98 98 N N/A 30.11 1020 2 3 N/A
8:55 am 08:55 Cloudy 40 4.6 40 4.4 99 99 N N/A 30.12 1020 2 3 N/A
9:15 am 09:15 Cloudy 40 4.6 40 4.5 99 99 N N/A 30.13 1020 2 3 N/A
9:35 am 09:35 Cloudy 40 4.6 40 4.5 99 99 N N/A 30.11 1020 2 2 N/A
9:55 am 09:55 Cloudy 40 4.7 40 4.5 99 99 N N/A 30.11 1020 2 2 N/A
10:15 am 10:15 Cloudy 41 4.8 40 4.6 99 99 N N/A 30.11 1020 1 2 N/A
10:35 am 10:35 Cloudy 41 5 40 4.6 97 97 SW 3 6 30.12 1020 3 4 N/A
10:55 am 10:55 Cloudy 41 5.1 40 4.7 97 97 N N/A 30.11 1020 3 5 N/A
11:15 am 11:15 Cloudy 42 5.4 41 4.8 96 96 WSW 5 7 30.12 1020 4 6 N/A
11:35 am 11:35 Cloudy 42 5.6 40 4.6 93 93 SW 3 6 30.10 1019 7 11 N/A
11:55 am 11:55 Cloudy 42 5.6 41 4.8 95 95 SSW 7 11 30.10 1019 5 8 N/A
12:15 pm 12:15 Cloudy 42 5.7 40 4.7 93 93 WSW 7 11 30.10 1019 7 11 N/A
12:35 pm 12:35 Cloudy 43 6 40 4.3 89 89 SW 6 9 30.09 1019 10 16 N/A
12:55 pm 12:55 Cloudy 43 6.2 40 4.2 87 87 WSW 6 9 30.09 1019 10 16 N/A
1:15 pm 13:15 Cloudy 43 6.3 40 4.6 89 89 SSW 9 15 30.09 1019 10 16 N/A
1:35 pm 13:35 Cloudy 44 6.5 40 4.4 87 87 WSW 7 11 30.09 1019 10 16 N/A
1:55 pm 13:55 Cloudy 44 6.6 40 4.4 86 86 WSW 7 11 30.08 1019 10 16 N/A
2:15 pm 14:15 Cloudy 44 6.5 40 4.7 88 88 WSW 7 11 30.08 1019 10 16 N/A
2:35 pm 14:35 Cloudy 44 6.8 40 4.6 86 86 SW 7 11 30.07 1018 10 16 N/A
2:55 pm 14:55 Cloudy 45 7 40 4.6 85 85 W 6 9 30.07 1018 10 16 N/A
3:15 pm 15:15 Cloudy 45 7 41 4.9 87 87 W 7 11 30.06 1018 10 16 N/A
3:35 pm 15:35 Cloudy 45 7 41 4.8 86 86 WSW 7 11 30.05 1018 10 16 N/A
3:55 pm 15:55 Cloudy 45 7 41 4.9 87 87 W 7 11 30.05 1018 10 16 N/A
4:15 pm 16:15 Cloudy 45 7.1 41 4.8 85 85 N N/A 30.05 1018 10 16 N/A
4:35 pm 16:35 Cloudy 45 7.2 41 4.8 85 85 WNW 5 7 30.05 1018 10 16 N/A
4:55 pm 16:55 Cloudy 45 7.2 41 4.9 85 85 W 5 7 30.05 1018 10 16 N/A
5:15 pm 17:15 Cloudy 45 7.2 40 4.6 84 84 WSW 3 6 30.04 1017 10 16 N/A
5:35 pm 17:35 Cloudy 45 7.3 41 4.8 84 84 W 3 6 30.04 1017 10 16 N/A
5:55 pm 17:55 Cloudy 45 7.4 41 4.8 84 84 SSW 3 6 30.04 1017 10 16 N/A
6:15 pm 18:15 Cloudy 46 7.5 41 4.9 84 84 WSW 5 7 30.04 1017 10 16 N/A
6:35 pm 18:35 Cloudy 46 7.5 41 5 84 84 W 5 7 30.04 1017 10 16 N/A
6:55 pm 18:55 Cloudy 46 7.5 41 5.1 85 85 W 6 9 30.04 1017 10 16 N/A
7:15 pm 19:15 Cloudy 45 7.4 41 5 85 85 WSW 3 6 30.03 1017 10 16 N/A
7:35 pm 19:35 Cloudy 45 7.2 41 5 86 86 N N/A 30.03 1017 10 16 N/A
7:55 pm 19:55 Cloudy 45 7.1 41 5.1 87 87 W 3 6 30.04 1017 10 16 N/A
8:15 pm 20:15 Cloudy 45 7.1 41 5.2 88 88 N N/A 30.04 1017 10 16 N/A
8:55 pm 20:55 Cloudy 44 6.9 41 5.2 89 89 N N/A 30.03 1017 7 11 N/A
9:15 pm 21:15 Cloudy 44 6.8 42 5.5 92 92 N N/A 30.02 1017 7 11 N/A
9:35 pm 21:35 Cloudy 44 6.7 42 5.4 92 92 N N/A 30.02 1017 7 11 N/A
10:15 pm 22:15 Cloudy 44 6.6 42 5.5 93 93 N N/A 30.03 1017 7 11 N/A
10:35 pm 22:35 Cloudy 44 6.7 42 5.5 92 92 N N/A 30.03 1017 7 11 N/A
10:55 pm 22:55 Cloudy 44 6.7 42 5.5 92 92 N N/A 30.04 1017 7 11 N/A
11:15 pm 23:15 Cloudy 44 6.6 42 5.8 95 95 N N/A 30.04 1017 7 11 N/A
11:55 pm 23:55 Cloudy 44 6.6 42 5.7 94 94 N N/A 30.04 1017 7 11 N/A

Powered by AerisWeather